Big Rapids, MI

4:02 PM EST on December 13, 2017 (GMT -0500)
Roben-Hood

Weather History for KRQB - October, 2010

Change the Weather History Date:

Tuesday, October 26, 2010

  Actual Average Record
Temperature  
Mean Temperature 58 °F -  
Max Temperature 64 °F 54 °F 75 °F (1989)
Min Temperature 51 °F 33 °F 18 °F (1990)
Degree Days  
Heating Degree Days 8    
Growing Degree Days 8 (Base 50)    
Moisture  
Dew Point 55 °F    
Average Humidity 82    
Maximum Humidity 100    
Minimum Humidity 55    
Precipitation  
Precipitation 0.00 in - - ()
Sea Level Pressure  
Sea Level Pressure 29.24 in    
Wind  
Wind Speed 11 mph (SSE)    
Max Wind Speed 28 mph    
Max Gust Speed 43 mph    
Visibility 9 miles    
Events Rain    
Averages and records for this station are not official NWS values.
T = Trace of Precipitation, MM = Missing Value Source: NWS Daily Summary

Daily Weather History Graph

Daily Weather History Graph

Search for Another Location

Airport or City:

Trip Planner

Search our weather history database for the weather conditions in past years. The results will help you decide how hot, cold, wet, or windy it might be!

Date:

Astronomy

Oct. 26, 2010 Rise Set
Actual Time 8:10 AM EDT 6:41 PM EDT
Civil Twilight 7:40 AM EDT 7:10 PM EDT
Nautical Twilight 7:06 AM EDT 7:44 PM EDT
Astronomical Twilight 6:33 AM EDT 8:17 PM EDT
Moon 8:54 PM EDT (10/26) 11:58 AM EDT (10/26)
Length of Visible Light 11h 30m
Length of Day
10h 31m
Waning Gibbous, 87% of the Moon is Illuminated
Oct 26
Waning Gibbous
Oct 30
Last Quarter
Nov 6
New
Nov 13
First Quarter
Nov 21
Full

Hourly Weather History & Observations

Time (EDT) Temp. Dew Point Humidity Pressure Visibility Wind Dir Wind Speed Gust Speed Precip Events Conditions
12:15 AM 51.8 °F 51.8 °F 100% 29.51 in 7.0 mi Calm Calm - N/A   Scattered Clouds
12:35 AM 53.6 °F 53.6 °F 100% 29.50 in 7.0 mi SSE 4.6 mph - N/A   Clear
12:54 AM 59.0 °F 55.4 °F 88% 29.49 in 10.0 mi SSE 6.9 mph - N/A   Scattered Clouds
1:15 AM 59.0 °F 55.4 °F 88% 29.48 in 10.0 mi SE 4.6 mph - N/A   Mostly Cloudy
1:34 AM 59.0 °F 55.4 °F 88% 29.47 in 10.0 mi SE 6.9 mph - N/A   Mostly Cloudy
1:55 AM 59.0 °F 55.4 °F 88% 29.46 in 10.0 mi SE 8.1 mph - N/A   Scattered Clouds
2:14 AM 60.8 °F 57.2 °F 88% 29.45 in 10.0 mi SSE 12.7 mph 18.4 mph N/A   Clear
2:35 AM 60.8 °F 57.2 °F 88% 29.44 in 10.0 mi SSE 9.2 mph - N/A   Scattered Clouds
2:54 AM 60.8 °F 57.2 °F 88% 29.42 in 10.0 mi SSE 10.4 mph 16.1 mph N/A   Scattered Clouds
3:15 AM 60.8 °F 57.2 °F 88% 29.41 in 10.0 mi SSE 10.4 mph - N/A   Mostly Cloudy
3:34 AM 60.8 °F 57.2 °F 88% 29.39 in 10.0 mi SSE 10.4 mph - N/A   Mostly Cloudy
3:55 AM 60.8 °F 57.2 °F 88% 29.38 in 10.0 mi SE 11.5 mph - N/A   Scattered Clouds
4:14 AM 60.8 °F 57.2 °F 88% 29.36 in 10.0 mi SE 13.8 mph 20.7 mph N/A   Scattered Clouds
4:35 AM 60.8 °F 57.2 °F 88% 29.34 in 10.0 mi SE 10.4 mph 17.3 mph N/A   Mostly Cloudy
4:54 AM 62.6 °F 57.2 °F 82% 29.33 in 10.0 mi SE 15.0 mph 19.6 mph N/A   Mostly Cloudy
5:14 AM 62.6 °F 57.2 °F 82% 29.32 in 10.0 mi SE 10.4 mph 18.4 mph N/A   Overcast
5:35 AM 62.6 °F 57.2 °F 82% 29.31 in 10.0 mi SE 16.1 mph 27.6 mph N/A   Mostly Cloudy
5:54 AM 62.6 °F 57.2 °F 82% 29.29 in 10.0 mi SE 12.7 mph 17.3 mph N/A   Mostly Cloudy
6:15 AM 62.6 °F 57.2 °F 82% 29.27 in 10.0 mi SE 12.7 mph 20.7 mph N/A   Scattered Clouds
6:34 AM 62.6 °F 57.2 °F 82% 29.25 in 10.0 mi SE 12.7 mph 16.1 mph N/A   Scattered Clouds
6:55 AM 62.6 °F 57.2 °F 82% 29.24 in 10.0 mi SE 17.3 mph 24.2 mph N/A   Overcast
7:14 AM 62.6 °F 57.2 °F 82% 29.23 in 10.0 mi SE 12.7 mph 20.7 mph N/A   Scattered Clouds
7:35 AM 62.6 °F 57.2 °F 82% 29.23 in 10.0 mi SSE 12.7 mph 23.0 mph N/A   Mostly Cloudy
7:55 AM 62.6 °F 57.2 °F 82% 29.21 in 10.0 mi SE 13.8 mph 20.7 mph N/A   Overcast
8:14 AM 64.4 °F 59.0 °F 83% 29.19 in 10.0 mi SE 17.3 mph 23.0 mph N/A   Overcast
8:35 AM 64.4 °F 59.0 °F 83% 29.19 in 10.0 mi SSE 17.3 mph 26.5 mph N/A   Overcast
8:54 AM 64.4 °F 59.0 °F 83% 29.18 in 10.0 mi SE 18.4 mph 27.6 mph N/A Rain Light Rain
9:35 AM 64.4 °F 60.8 °F 88% 29.13 in 10.0 mi SE 23.0 mph 27.6 mph N/A Rain Light Rain
9:54 AM 62.6 °F 60.8 °F 94% 29.12 in 10.0 mi SE 15.0 mph 26.5 mph N/A Rain Light Rain
10:14 AM 62.6 °F 60.8 °F 94% 29.11 in 10.0 mi SSE 13.8 mph 25.3 mph N/A Rain Light Rain
10:35 AM 62.6 °F 60.8 °F 94% 29.10 in 3.0 mi SE 17.3 mph 26.5 mph N/A Rain Heavy Rain
10:54 AM 62.6 °F 62.6 °F 100% 29.09 in 4.0 mi SE 15.0 mph 23.0 mph N/A Rain Light Rain
11:15 AM 62.6 °F 62.6 °F 100% 29.09 in 7.0 mi SSE 18.4 mph 28.8 mph N/A Rain Light Rain
11:34 AM 64.4 °F 62.6 °F 94% 29.09 in 7.0 mi SSE 18.4 mph 26.5 mph N/A   Mostly Cloudy
11:55 AM 64.4 °F 62.6 °F 94% 29.08 in 7.0 mi SSE 16.1 mph 25.3 mph N/A Rain Rain
12:15 PM 64.4 °F 62.6 °F 94% 29.08 in 5.0 mi SSE 16.1 mph 33.4 mph N/A Rain Rain
12:34 PM 64.4 °F 62.6 °F 94% 29.04 in 7.0 mi SSE 13.8 mph 23.0 mph N/A Rain Light Rain
12:55 PM 64.4 °F 60.8 °F 88% 29.07 in 10.0 mi South 20.7 mph 32.2 mph N/A Rain Light Rain
1:15 PM 62.6 °F 55.4 °F 77% 29.06 in 10.0 mi South 24.2 mph 39.1 mph N/A   Mostly Cloudy
1:35 PM 60.8 °F 53.6 °F 77% 29.12 in 10.0 mi SSW 23.0 mph 41.4 mph N/A   Mostly Cloudy
1:55 PM 60.8 °F 51.8 °F 72% 29.11 in 10.0 mi SSW 23.0 mph 34.5 mph N/A   Mostly Cloudy
2:14 PM 59.0 °F 50.0 °F 72% 29.11 in 10.0 mi South 19.6 mph 32.2 mph N/A   Overcast
2:34 PM 59.0 °F 46.4 °F 63% 29.11 in 10.0 mi SSW 27.6 mph 42.6 mph N/A   Mostly Cloudy
2:54 PM 60.8 °F 46.4 °F 59% 29.12 in 10.0 mi SSW 20.7 mph 34.5 mph N/A   Mostly Cloudy
3:14 PM 60.8 °F 44.6 °F 55% 29.12 in 10.0 mi SSW 23.0 mph 38.0 mph N/A   Mostly Cloudy
3:35 PM 59.0 °F 44.6 °F 59% 29.13 in 10.0 mi SSW 20.7 mph 35.7 mph N/A   Overcast
3:54 PM 59.0 °F 44.6 °F 59% 29.14 in 10.0 mi SSW 15.0 mph 31.1 mph N/A   Overcast
4:15 PM 55.4 °F 44.6 °F 67% 29.17 in 10.0 mi SW 18.4 mph 28.8 mph N/A   Overcast
4:35 PM 55.4 °F 42.8 °F 63% 29.19 in 10.0 mi SW 23.0 mph 42.6 mph N/A   Mostly Cloudy
4:55 PM 55.4 °F 41.0 °F 58% 29.20 in 10.0 mi SW 16.1 mph 27.6 mph N/A   Overcast
5:14 PM 55.4 °F 42.8 °F 63% 29.20 in 10.0 mi SSW 18.4 mph 40.3 mph N/A   Overcast
5:35 PM 51.8 °F 44.6 °F 76% 29.23 in 7.0 mi SW 18.4 mph 32.2 mph N/A Rain Light Rain
5:54 PM 51.8 °F 46.4 °F 82% 29.24 in 2.0 mi SSW 11.5 mph 21.9 mph N/A   Haze
6:15 PM 51.8 °F 46.4 °F 82% 29.26 in 4.0 mi SSW 23.0 mph 31.1 mph N/A Rain Light Rain
6:35 PM 51.8 °F 46.4 °F 82% 29.27 in 10.0 mi SW 17.3 mph 24.2 mph N/A   Mostly Cloudy
6:55 PM 51.8 °F 44.6 °F 76% 29.27 in 10.0 mi SW 13.8 mph 20.7 mph N/A   Scattered Clouds
7:15 PM 51.8 °F 44.6 °F 76% 29.27 in 10.0 mi SSW 9.2 mph 17.3 mph N/A   Mostly Cloudy
7:35 PM 51.8 °F 44.6 °F 76% 29.27 in 10.0 mi SSW 10.4 mph 16.1 mph N/A Rain Rain
7:54 PM 50.0 °F 46.4 °F 87% 29.30 in 4.0 mi SW 17.3 mph 32.2 mph N/A Rain Light Rain
8:15 PM 50.0 °F 44.6 °F 82% 29.31 in 10.0 mi SSW 12.7 mph 24.2 mph N/A   Mostly Cloudy
8:34 PM 50.0 °F 44.6 °F 82% 29.32 in 10.0 mi SSW 12.7 mph 17.3 mph N/A   Scattered Clouds
8:55 PM 50.0 °F 44.6 °F 82% 29.33 in 10.0 mi SW 15.0 mph 20.7 mph N/A   Scattered Clouds
9:14 PM 51.8 °F 39.2 °F 62% 29.33 in 10.0 mi SW 21.9 mph 39.1 mph N/A   Mostly Cloudy
9:35 PM 51.8 °F 37.4 °F 58% 29.35 in 10.0 mi SW 15.0 mph 35.7 mph N/A   Mostly Cloudy
9:54 PM 51.8 °F 37.4 °F 58% 29.36 in 10.0 mi SW 17.3 mph 31.1 mph N/A   Overcast
10:15 PM 51.8 °F 35.6 °F 54% 29.36 in 10.0 mi SW 16.1 mph 35.7 mph N/A   Overcast
10:34 PM 51.8 °F 37.4 °F 58% 29.37 in 10.0 mi SSW 18.4 mph 27.6 mph N/A   Overcast
10:55 PM 53.6 °F 37.4 °F 54% 29.37 in 10.0 mi SSW 17.3 mph 25.3 mph N/A   Overcast
11:14 PM 53.6 °F 37.4 °F 54% 29.38 in 10.0 mi SW 12.7 mph 24.2 mph N/A Rain Light Rain
11:35 PM 53.6 °F 37.4 °F 54% 29.38 in 10.0 mi SW 16.1 mph 25.3 mph N/A   Overcast
11:54 PM 53.6 °F 37.4 °F 54% 29.38 in 10.0 mi SSW 13.8 mph 27.6 mph N/A   Overcast